Погода в Анишином

Россия / Вологодская область     58°53′09″N   35°19′10″E
темп.,
°C
ветер,
м/с
пор.,
м/с
влажн.,
%
обл.,
%
осадки,
мм/ч
давл.,
гПа
погр.,
м
4 марта, чт
чт400:000з51298100 0.9 998854
03:00−1ссз61288100 2.8 997836
06:00−4зсз5128996 0.0 997698
09:00−4сз488598 0.1 999781
12:00−3сз368599 0.1 1000784
15:00−3сз3583100 0.3 1000800
18:00−6зсз239194 0.1 100165
21:00−5зсз379696 0.8 1002396
5 марта, пт
пт500:00−7зсз3895100 0.7 1002360
03:00−8зсз3895100 0.8 1004285
06:00−9зсз389595 0.1 1005337
09:00−9сз389394 0.2 1007436
12:00−7ссз368699 0.1 1009724
15:00−6ссз347493 0.1 1010952
18:00−9сз228841 0.0 101222
21:00−12сз229133 0.0 101421
6 марта, сб
сб600:00−14зсз229411 0.0 101526
03:00−15з23966 0.0 101649
06:00−14з239854 0.0 101672
09:00−11зсз259575 0.1 1016239
12:00−7з358397 0.0 1015667
15:00−5зюз467694 0.1 10131070
18:00−7ююз4118298 0.0 1008752
21:00−6юз7149299 0.4 10031189
7 марта, вс
вс700:00−4юз71592100 1.0 9961237
03:00−3юз71592100 1.8 9911206
06:00−3зюз61195100 1.1 989911
09:00−8зсз3784100 2.0 990539
12:00−7з4786100 0.1 991953
15:00−7з366894 0.4 9911136
18:00−8юв4893100 0.3 990450
21:00−9ссв1296100 1.6 991137
8 марта, пн
пн800:00−12ссв41090100 1.1 994402
03:00−12сз5128483 1.1 997565
06:00−13сз51390100 0.1 1000661
09:00−13ссз51189100 0.2 1003739
12:00−12ссз5887100 0.1 1006787
15:00−12ссз4886100 0.2 1009760
18:00−14ссз4990100 0.1 1012710
21:00−15с4992100 0.3 1015614